Time,TemperatureF,DewpointF,PressureIn,WindDirection,WindDirectionDegrees,WindSpeedMPH,WindSpeedGustMPH,Humidity,HourlyPrecipIn,Conditions,Clouds,dailyrainin,SoftwareType,DateUTC
2013-07-21 00:01:00,75.4,53.2,29.67,ESE,112,0.0,0.0,46,0.00,,,0.00,WUHU21623XXSP,2013-07-21 07:01:00,
2013-07-21 00:07:00,75.4,53.2,29.67,East,90,0.0,0.0,46,0.00,,,0.00,WUHU21623XXSP,2013-07-21 07:07:00,
2013-07-21 00:11:00,75.2,53.0,29.67,SE,135,0.0,0.0,46,0.00,,,0.00,WUHU21623XXSP,2013-07-21 07:11:00,
2013-07-21 00:16:00,75.1,52.9,29.67,East,90,0.0,0.0,46,0.00,,,0.00,WUHU21623XXSP,2013-07-21 07:16:00,
2013-07-21 00:21:00,74.7,53.2,29.66,South,180,0.0,0.0,47,0.00,,,0.00,WUHU21623XXSP,2013-07-21 07:21:00,
2013-07-21 00:27:00,74.5,53.0,29.67,SSE,157,0.0,2.8,47,0.00,,,0.00,WUHU21623XXSP,2013-07-21 07:27:00,
2013-07-21 00:31:00,73.6,51.5,29.67,South,180,0.0,7.3,46,0.00,,,0.00,WUHU21623XXSP,2013-07-21 07:31:00,
2013-07-21 00:36:00,73.6,51.5,29.67,South,180,0.0,7.3,46,0.00,,,0.00,WUHU21623XXSP,2013-07-21 07:36:00,
2013-07-21 00:41:00,73.6,51.5,29.66,South,180,0.0,3.3,46,0.00,,,0.00,WUHU21623XXSP,2013-07-21 07:41:00,
2013-07-21 00:46:00,73.4,51.4,29.67,South,180,0.0,3.3,46,0.00,,,0.00,WUHU21623XXSP,2013-07-21 07:46:00,
2013-07-21 00:51:00,73.4,51.4,29.67,South,180,0.0,7.3,46,0.00,,,0.00,WUHU21623XXSP,2013-07-21 07:51:00,
2013-07-21 00:56:00,73.1,51.1,29.67,SSW,202,0.0,7.3,46,0.00,,,0.00,WUHU21623XXSP,2013-07-21 07:56:00,
2013-07-21 01:01:00,72.9,50.9,29.67,SSW,202,0.0,0.0,46,0.00,,,0.00,WUHU21623XXSP,2013-07-21 08:01:00,
2013-07-21 01:10:00,72.9,50.9,29.67,SSW,202,3.3,3.3,46,0.00,,,0.00,WUHU21623XXSP,2013-07-21 08:10:00,
2013-07-21 01:15:00,71.5,50.8,29.67,South,180,0.0,5.5,48,0.00,,,0.00,WUHU21623XXSP,2013-07-21 08:15:00,
2013-07-21 01:20:00,70.9,50.8,29.67,South,180,0.0,8.5,49,0.00,,,0.00,WUHU21623XXSP,2013-07-21 08:20:00,
2013-07-21 01:25:00,70.6,51.1,29.67,SSE,157,0.0,8.5,50,0.00,,,0.00,WUHU21623XXSP,2013-07-21 08:25:00,
2013-07-21 01:30:00,70.4,51.5,29.67,South,180,0.0,6.8,51,0.00,,,0.00,WUHU21623XXSP,2013-07-21 08:30:00,
2013-07-21 01:35:00,70.0,51.1,29.67,SSE,157,0.0,4.0,51,0.00,,,0.00,WUHU21623XXSP,2013-07-21 08:35:00,
2013-07-21 01:40:00,69.8,51.5,29.68,SE,135,0.0,0.0,52,0.00,,,0.00,WUHU21623XXSP,2013-07-21 08:40:00,
2013-07-21 01:45:00,69.7,51.4,29.67,South,180,0.0,4.0,52,0.00,,,0.00,WUHU21623XXSP,2013-07-21 08:45:00,
2013-07-21 01:51:00,69.5,51.7,29.67,SSW,202,0.0,4.5,53,0.00,,,0.00,WUHU21623XXSP,2013-07-21 08:51:00,
2013-07-21 01:56:00,69.1,51.3,29.67,South,180,3.3,4.5,53,0.00,,,0.00,WUHU21623XXSP,2013-07-21 08:56:00,
2013-07-21 02:01:00,68.9,51.7,29.67,South,180,0.0,3.3,54,0.00,,,0.00,WUHU21623XXSP,2013-07-21 09:01:00,
2013-07-21 02:10:00,68.0,50.8,29.67,South,180,5.5,5.5,54,0.00,,,0.00,WUHU21623XXSP,2013-07-21 09:10:00,
2013-07-21 02:15:00,67.7,51.6,29.67,SSE,157,0.0,16.3,56,0.00,,,0.00,WUHU21623XXSP,2013-07-21 09:15:00,
2013-07-21 02:20:00,68.0,51.3,29.68,South,180,0.0,16.3,55,0.00,,,0.00,WUHU21623XXSP,2013-07-21 09:20:00,
2013-07-21 02:25:00,68.2,51.5,29.67,SSW,202,0.0,0.0,55,0.00,,,0.00,WUHU21623XXSP,2013-07-21 09:25:00,
2013-07-21 02:31:00,68.2,51.5,29.67,SSW,202,0.0,0.0,55,0.00,,,0.00,WUHU21623XXSP,2013-07-21 09:31:00,
2013-07-21 02:36:00,68.2,51.5,29.67,SSW,202,0.0,0.0,55,0.00,,,0.00,WUHU21623XXSP,2013-07-21 09:36:00,
2013-07-21 02:41:00,68.2,51.5,29.68,SSW,202,0.0,0.0,55,0.00,,,0.00,WUHU21623XXSP,2013-07-21 09:41:00,
2013-07-21 02:46:00,68.2,51.5,29.67,SSW,202,0.0,0.0,55,0.00,,,0.00,WUHU21623XXSP,2013-07-21 09:46:00,
2013-07-21 02:51:00,68.6,51.9,29.67,ESE,112,0.0,0.0,55,0.00,,,0.00,WUHU21623XXSP,2013-07-21 09:51:00,
2013-07-21 02:56:00,68.8,52.1,29.67,ESE,112,0.0,0.0,55,0.00,,,0.00,WUHU21623XXSP,2013-07-21 09:56:00,
2013-07-21 03:01:00,68.9,52.2,29.67,SSE,157,0.0,0.0,55,0.00,,,0.00,WUHU21623XXSP,2013-07-21 10:01:00,
2013-07-21 03:06:00,69.3,52.1,29.67,SSE,157,0.0,0.0,54,0.00,,,0.00,WUHU21623XXSP,2013-07-21 10:06:00,
2013-07-21 03:11:00,69.1,51.9,29.67,SSE,157,0.0,0.0,54,0.00,,,0.00,WUHU21623XXSP,2013-07-21 10:11:00,
2013-07-21 03:16:00,69.1,52.4,29.68,East,90,0.0,0.0,55,0.00,,,0.00,WUHU21623XXSP,2013-07-21 10:16:00,
2013-07-21 03:21:00,69.1,51.9,29.67,ENE,67,0.0,0.0,54,0.00,,,0.00,WUHU21623XXSP,2013-07-21 10:21:00,
2013-07-21 03:26:00,68.9,52.2,29.68,ENE,67,0.0,0.0,55,0.00,,,0.00,WUHU21623XXSP,2013-07-21 10:26:00,
2013-07-21 03:31:00,68.9,52.2,29.67,ENE,67,0.0,0.0,55,0.00,,,0.00,WUHU21623XXSP,2013-07-21 10:31:00,
2013-07-21 03:36:00,68.8,52.1,29.67,East,90,0.0,0.0,55,0.00,,,0.00,WUHU21623XXSP,2013-07-21 10:36:00,
2013-07-21 03:41:00,68.9,52.2,29.67,WSW,247,0.0,0.0,55,0.00,,,0.00,WUHU21623XXSP,2013-07-21 10:41:00,
2013-07-21 03:46:00,69.1,51.9,29.67,South,180,0.0,0.0,54,0.00,,,0.00,WUHU21623XXSP,2013-07-21 10:46:00,
2013-07-21 03:51:00,69.3,52.1,29.67,West,270,0.0,3.3,54,0.00,,,0.00,WUHU21623XXSP,2013-07-21 10:51:00,
2013-07-21 03:56:00,69.3,52.1,29.67,WSW,247,0.0,3.3,54,0.00,,,0.00,WUHU21623XXSP,2013-07-21 10:56:00,
2013-07-21 04:01:00,69.1,51.9,29.67,WSW,247,0.0,0.0,54,0.00,,,0.00,WUHU21623XXSP,2013-07-21 11:01:00,
2013-07-21 04:06:00,68.9,51.7,29.68,SW,225,0.0,0.0,54,0.00,,,0.00,WUHU21623XXSP,2013-07-21 11:06:00,
2013-07-21 04:11:00,68.6,51.4,29.67,SW,225,0.0,0.0,54,0.00,,,0.00,WUHU21623XXSP,2013-07-21 11:11:00,
2013-07-21 04:16:00,68.6,51.9,29.68,SW,225,0.0,0.0,55,0.00,,,0.00,WUHU21623XXSP,2013-07-21 11:16:00,
2013-07-21 04:21:00,68.2,51.5,29.67,SW,225,0.0,0.0,55,0.00,,,0.00,WUHU21623XXSP,2013-07-21 11:21:00,
2013-07-21 04:26:00,68.0,52.3,29.67,SW,225,0.0,0.0,57,0.00,,,0.00,WUHU21623XXSP,2013-07-21 11:26:00,
2013-07-21 04:31:00,67.5,51.4,29.68,SW,225,0.0,0.0,56,0.00,,,0.00,WUHU21623XXSP,2013-07-21 11:31:00,
2013-07-21 04:41:00,67.7,52.1,29.68,SW,225,0.0,0.0,57,0.00,,,0.00,WUHU21623XXSP,2013-07-21 11:41:00,
2013-07-21 04:46:00,67.1,52.0,29.68,SW,225,0.0,0.0,58,0.00,,,0.00,WUHU21623XXSP,2013-07-21 11:46:00,
2013-07-21 04:51:00,66.4,51.3,29.68,SW,225,0.0,0.0,58,0.00,,,0.00,WUHU21623XXSP,2013-07-21 11:51:00,
2013-07-21 04:56:00,66.8,51.7,29.68,SW,225,0.0,0.0,58,0.00,,,0.00,WUHU21623XXSP,2013-07-21 11:56:00,
2013-07-21 05:02:00,66.4,51.3,29.68,SW,225,0.0,0.0,58,0.00,,,0.00,WUHU21623XXSP,2013-07-21 12:02:00,
2013-07-21 05:07:00,66.2,51.6,29.68,SW,225,0.0,0.0,59,0.00,,,0.00,WUHU21623XXSP,2013-07-21 12:07:00,
2013-07-21 05:12:00,65.9,51.8,29.68,SW,225,0.0,0.0,60,0.00,,,0.00,WUHU21623XXSP,2013-07-21 12:12:00,
2013-07-21 05:17:00,65.7,51.6,29.68,SW,225,0.0,0.0,60,0.00,,,0.00,WUHU21623XXSP,2013-07-21 12:17:00,
2013-07-21 05:22:00,65.3,51.2,29.68,SW,225,0.0,0.0,60,0.00,,,0.00,WUHU21623XXSP,2013-07-21 12:22:00,
2013-07-21 05:27:00,65.3,51.2,29.67,South,180,0.0,0.0,60,0.00,,,0.00,WUHU21623XXSP,2013-07-21 12:27:00,
2013-07-21 05:32:00,65.2,51.6,29.68,South,180,0.0,0.0,61,0.00,,,0.00,WUHU21623XXSP,2013-07-21 12:32:00,
2013-07-21 05:37:00,65.2,51.6,29.68,South,180,0.0,0.0,61,0.00,,,0.00,WUHU21623XXSP,2013-07-21 12:37:00,
2013-07-21 05:42:00,65.2,51.6,29.68,South,180,0.0,0.0,61,0.00,,,0.00,WUHU21623XXSP,2013-07-21 12:42:00,
2013-07-21 05:47:00,65.0,51.4,29.68,South,180,0.0,0.0,61,0.00,,,0.00,WUHU21623XXSP,2013-07-21 12:47:00,
2013-07-21 05:52:00,65.0,51.4,29.68,South,180,0.0,0.0,61,0.00,,,0.00,WUHU21623XXSP,2013-07-21 12:52:00,
2013-07-21 05:57:00,64.6,51.0,29.68,South,180,0.0,0.0,61,0.00,,,0.00,WUHU21623XXSP,2013-07-21 12:57:00,
2013-07-21 06:02:00,64.8,51.2,29.69,SSE,157,0.0,0.0,61,0.00,,,0.00,WUHU21623XXSP,2013-07-21 13:02:00,
2013-07-21 06:07:00,65.2,51.6,29.69,SSE,157,0.0,0.0,61,0.00,,,0.00,WUHU21623XXSP,2013-07-21 13:07:00,
2013-07-21 06:12:00,64.8,51.2,29.69,SSE,157,0.0,0.0,61,0.00,,,0.00,WUHU21623XXSP,2013-07-21 13:12:00,
2013-07-21 06:17:00,64.6,51.4,29.69,ENE,67,0.0,0.0,62,0.00,,,0.00,WUHU21623XXSP,2013-07-21 13:17:00,
2013-07-21 06:22:00,64.6,51.4,29.69,ENE,67,0.0,0.0,62,0.00,,,0.00,WUHU21623XXSP,2013-07-21 13:22:00,
2013-07-21 06:27:00,64.6,51.4,29.69,ENE,67,0.0,0.0,62,0.00,,,0.00,WUHU21623XXSP,2013-07-21 13:27:00,
2013-07-21 06:32:00,65.0,51.8,29.70,ENE,67,0.0,0.0,62,0.00,,,0.00,WUHU21623XXSP,2013-07-21 13:32:00,
2013-07-21 06:37:00,64.6,51.4,29.70,ENE,67,0.0,0.0,62,0.00,,,0.00,WUHU21623XXSP,2013-07-21 13:37:00,
2013-07-21 06:42:00,64.6,51.4,29.70,ENE,67,0.0,0.0,62,0.00,,,0.00,WUHU21623XXSP,2013-07-21 13:42:00,
2013-07-21 06:47:00,65.2,52.0,29.70,ENE,67,0.0,0.0,62,0.00,,,0.00,WUHU21623XXSP,2013-07-21 13:47:00,
2013-07-21 06:52:00,65.5,51.9,29.69,ENE,67,0.0,0.0,61,0.00,,,0.00,WUHU21623XXSP,2013-07-21 13:52:00,
2013-07-21 06:58:00,65.3,51.7,29.69,East,90,0.0,0.0,61,0.00,,,0.00,WUHU21623XXSP,2013-07-21 13:58:00,
2013-07-21 07:03:00,65.2,51.6,29.69,ESE,112,0.0,0.0,61,0.00,,,0.00,WUHU21623XXSP,2013-07-21 14:03:00,
2013-07-21 07:08:00,65.3,51.7,29.70,ESE,112,0.0,0.0,61,0.00,,,0.00,WUHU21623XXSP,2013-07-21 14:08:00,
2013-07-21 07:13:00,65.5,50.9,29.69,SSW,202,0.0,0.0,59,0.00,,,0.00,WUHU21623XXSP,2013-07-21 14:13:00,
2013-07-21 07:18:00,65.9,51.3,29.70,SSW,202,0.0,0.0,59,0.00,,,0.00,WUHU21623XXSP,2013-07-21 14:18:00,
2013-07-21 07:23:00,65.9,50.8,29.70,South,180,0.0,0.0,58,0.00,,,0.00,WUHU21623XXSP,2013-07-21 14:23:00,
2013-07-21 07:28:00,65.7,50.7,29.70,South,180,0.0,0.0,58,0.00,,,0.00,WUHU21623XXSP,2013-07-21 14:28:00,
2013-07-21 07:33:00,65.7,51.1,29.70,South,180,0.0,0.0,59,0.00,,,0.00,WUHU21623XXSP,2013-07-21 14:33:00,
2013-07-21 07:38:00,65.5,50.9,29.70,South,180,0.0,0.0,59,0.00,,,0.00,WUHU21623XXSP,2013-07-21 14:38:00,
2013-07-21 07:43:00,65.9,51.8,29.71,SSW,202,0.0,0.0,60,0.00,,,0.00,WUHU21623XXSP,2013-07-21 14:43:00,
2013-07-21 07:48:00,66.2,51.6,29.70,SSE,157,0.0,0.0,59,0.00,,,0.00,WUHU21623XXSP,2013-07-21 14:48:00,
2013-07-21 07:53:00,66.4,51.3,29.71,SSE,157,0.0,0.0,58,0.00,,,0.00,WUHU21623XXSP,2013-07-21 14:53:00,
2013-07-21 07:58:00,66.4,51.3,29.71,ESE,112,0.0,0.0,58,0.00,,,0.00,WUHU21623XXSP,2013-07-21 14:58:00,
2013-07-21 08:03:00,66.8,52.2,29.72,SSW,202,0.0,0.0,59,0.00,,,0.00,WUHU21623XXSP,2013-07-21 15:03:00,
2013-07-21 08:08:00,67.1,52.0,29.71,NE,45,0.0,0.0,58,0.00,,,0.00,WUHU21623XXSP,2013-07-21 15:08:00,
2013-07-21 08:13:00,67.3,51.7,29.72,ENE,67,0.0,0.0,57,0.00,,,0.00,WUHU21623XXSP,2013-07-21 15:13:00,
2013-07-21 08:18:00,67.9,52.2,29.72,ENE,67,0.0,0.0,57,0.00,,,0.00,WUHU21623XXSP,2013-07-21 15:18:00,
2013-07-21 08:23:00,68.2,52.5,29.72,South,180,0.0,0.0,57,0.00,,,0.00,WUHU21623XXSP,2013-07-21 15:23:00,
2013-07-21 08:28:00,69.3,52.6,29.72,South,180,0.0,5.0,55,0.00,,,0.00,WUHU21623XXSP,2013-07-21 15:28:00,
2013-07-21 08:33:00,69.3,53.1,29.72,ESE,112,0.0,5.0,56,0.00,,,0.00,WUHU21623XXSP,2013-07-21 15:33:00,
2013-07-21 08:38:00,69.5,53.3,29.72,South,180,0.0,0.0,56,0.00,,,0.00,WUHU21623XXSP,2013-07-21 15:38:00,
2013-07-21 08:43:00,69.8,53.0,29.72,SW,225,0.0,0.0,55,0.00,,,0.00,WUHU21623XXSP,2013-07-21 15:43:00,
2013-07-21 08:48:00,70.6,53.8,29.72,South,180,0.0,4.0,55,0.00,,,0.00,WUHU21623XXSP,2013-07-21 15:48:00,
2013-07-21 08:53:00,70.6,52.7,29.72,South,180,0.0,4.0,53,0.00,,,0.00,WUHU21623XXSP,2013-07-21 15:53:00,
2013-07-21 08:58:00,70.9,53.5,29.72,South,180,0.0,0.0,54,0.00,,,0.00,WUHU21623XXSP,2013-07-21 15:58:00,
2013-07-21 09:03:00,71.1,53.2,29.72,SSW,202,0.0,4.0,53,0.00,,,0.00,WUHU21623XXSP,2013-07-21 16:03:00,
2013-07-21 09:08:00,71.1,52.7,29.72,South,180,0.0,6.3,52,0.00,,,0.00,WUHU21623XXSP,2013-07-21 16:08:00,
2013-07-21 09:14:00,71.5,53.0,29.72,SSW,202,0.0,6.8,52,0.00,,,0.00,WUHU21623XXSP,2013-07-21 16:14:00,
2013-07-21 09:19:00,72.2,53.2,29.72,SSE,157,0.0,6.8,51,0.00,,,0.00,WUHU21623XXSP,2013-07-21 16:19:00,
2013-07-21 09:24:00,72.5,53.4,29.72,South,180,0.0,4.5,51,0.00,,,0.00,WUHU21623XXSP,2013-07-21 16:24:00,
2013-07-21 09:29:00,73.1,53.4,29.72,South,180,2.8,6.3,50,0.00,,,0.00,WUHU21623XXSP,2013-07-21 16:29:00,
2013-07-21 09:34:00,73.4,53.7,29.72,South,180,6.8,6.8,50,0.00,,,0.00,WUHU21623XXSP,2013-07-21 16:34:00,
2013-07-21 09:39:00,74.0,54.3,29.72,SW,225,0.0,6.8,50,0.00,,,0.00,WUHU21623XXSP,2013-07-21 16:39:00,
2013-07-21 09:44:00,74.5,54.7,29.72,SSW,202,0.0,11.3,50,0.00,,,0.00,WUHU21623XXSP,2013-07-21 16:44:00,
2013-07-21 09:49:00,74.9,55.1,29.72,South,180,0.0,11.3,50,0.00,,,0.00,WUHU21623XXSP,2013-07-21 16:49:00,
2013-07-21 09:54:00,75.3,55.5,29.72,South,180,2.3,7.8,50,0.00,,,0.00,WUHU21623XXSP,2013-07-21 16:54:00,
2013-07-21 09:59:00,75.3,55.4,29.72,SSE,157,4.0,7.8,50,0.00,,,0.00,WUHU21623XXSP,2013-07-21 16:59:00,
2013-07-21 10:04:00,75.9,55.5,29.71,SSW,202,3.3,4.0,49,0.00,,,0.00,WUHU21623XXSP,2013-07-21 17:04:00,
2013-07-21 10:09:00,76.5,56.0,29.72,South,180,0.0,10.0,49,0.00,,,0.00,WUHU21623XXSP,2013-07-21 17:09:00,
2013-07-21 10:14:00,76.9,55.8,29.72,South,180,0.0,10.0,48,0.00,,,0.00,WUHU21623XXSP,2013-07-21 17:14:00,
2013-07-21 10:19:00,77.5,56.3,29.71,South,180,0.0,9.5,48,0.00,,,0.00,WUHU21623XXSP,2013-07-21 17:19:00,
2013-07-21 10:24:00,78.4,56.0,29.72,SSE,157,0.0,10.0,46,0.00,,,0.00,WUHU21623XXSP,2013-07-21 17:24:00,
2013-07-21 10:29:00,78.4,55.9,29.72,SSE,157,0.0,10.0,46,0.00,,,0.00,WUHU21623XXSP,2013-07-21 17:29:00,
2013-07-21 10:34:00,78.6,56.7,29.72,ESE,112,0.0,9.5,47,0.00,,,0.00,WUHU21623XXSP,2013-07-21 17:34:00,
2013-07-21 10:39:00,79.1,56.0,29.72,SSE,157,0.0,4.0,45,0.00,,,0.00,WUHU21623XXSP,2013-07-21 17:39:00,
2013-07-21 10:44:00,79.4,56.8,29.72,SW,225,0.0,5.0,46,0.00,,,0.00,WUHU21623XXSP,2013-07-21 17:44:00,
2013-07-21 10:49:00,79.7,57.1,29.72,WSW,247,6.8,6.8,46,0.00,,,0.00,WUHU21623XXSP,2013-07-21 17:49:00,
2013-07-21 10:54:00,80.2,56.9,29.72,South,180,12.3,12.3,45,0.00,,,0.00,WUHU21623XXSP,2013-07-21 17:54:00,
2013-07-21 11:00:00,80.8,56.9,29.72,SSW,202,6.8,15.0,44,0.00,,,0.00,WUHU21623XXSP,2013-07-21 18:00:00,
2013-07-21 11:05:00,81.0,57.0,29.72,SSE,157,0.0,15.0,44,0.00,,,0.00,WUHU21623XXSP,2013-07-21 18:05:00,
2013-07-21 11:10:00,81.6,57.6,29.72,NW,315,0.0,8.5,44,0.00,,,0.00,WUHU21623XXSP,2013-07-21 18:10:00,
2013-07-21 11:15:00,82.5,57.1,29.72,South,180,0.0,18.0,42,0.00,,,0.00,WUHU21623XXSP,2013-07-21 18:15:00,
2013-07-21 11:20:00,82.5,57.7,29.72,SSW,202,5.0,18.0,43,0.00,,,0.00,WUHU21623XXSP,2013-07-21 18:20:00,
2013-07-21 11:25:00,83.0,57.5,29.71,East,90,0.0,10.0,42,0.00,,,0.00,WUHU21623XXSP,2013-07-21 18:25:00,
2013-07-21 11:30:00,83.5,58.0,29.71,WSW,247,15.0,15.0,42,0.00,,,0.00,WUHU21623XXSP,2013-07-21 18:30:00,
2013-07-21 11:35:00,83.5,57.9,29.72,South,180,0.0,15.0,42,0.00,,,0.00,WUHU21623XXSP,2013-07-21 18:35:00,
2013-07-21 11:40:00,83.8,56.9,29.71,WSW,247,0.0,15.0,40,0.00,,,0.00,WUHU21623XXSP,2013-07-21 18:40:00,
2013-07-21 11:45:00,84.1,55.6,29.71,ESE,112,0.0,9.0,38,0.00,,,0.00,WUHU21623XXSP,2013-07-21 18:45:00,
2013-07-21 11:50:00,84.2,55.0,29.72,North,0,0.0,11.3,37,0.00,,,0.00,WUHU21623XXSP,2013-07-21 18:50:00,
2013-07-21 11:55:00,84.6,56.1,29.71,SW,225,0.0,11.3,38,0.00,,,0.00,WUHU21623XXSP,2013-07-21 18:55:00,
2013-07-21 12:00:00,85.1,55.8,29.71,SSW,202,0.0,9.5,37,0.00,,,0.00,WUHU21623XXSP,2013-07-21 19:00:00,
2013-07-21 12:05:00,85.0,55.8,29.72,SSW,202,2.8,8.5,37,0.00,,,0.00,WUHU21623XXSP,2013-07-21 19:05:00,
2013-07-21 12:10:00,85.6,56.3,29.71,South,180,0.0,33.5,37,0.00,,,0.00,WUHU21623XXSP,2013-07-21 19:10:00,
2013-07-21 12:15:00,85.7,56.3,29.71,SSW,202,3.3,33.5,37,0.00,,,0.00,WUHU21623XXSP,2013-07-21 19:15:00,
2013-07-21 12:20:00,85.9,56.5,29.71,SSE,157,2.3,7.8,37,0.00,,,0.00,WUHU21623XXSP,2013-07-21 19:20:00,
2013-07-21 12:25:00,86.2,56.8,29.71,South,180,0.0,15.0,37,0.00,,,0.00,WUHU21623XXSP,2013-07-21 19:25:00,
2013-07-21 12:30:00,87.3,57.8,29.71,SW,225,0.0,15.0,37,0.00,,,0.00,WUHU21623XXSP,2013-07-21 19:30:00,
2013-07-21 12:35:00,87.6,58.0,29.71,SSW,202,2.8,11.8,37,0.00,,,0.00,WUHU21623XXSP,2013-07-21 19:35:00,
2013-07-21 12:40:00,87.3,57.0,29.71,South,180,0.0,11.3,36,0.00,,,0.00,WUHU21623XXSP,2013-07-21 19:40:00,
2013-07-21 12:45:00,87.3,57.8,29.71,SW,225,0.0,8.5,37,0.00,,,0.00,WUHU21623XXSP,2013-07-21 19:45:00,
2013-07-21 12:50:00,88.1,58.5,29.71,West,270,0.0,15.0,37,0.00,,,0.00,WUHU21623XXSP,2013-07-21 19:50:00,
2013-07-21 12:55:00,88.6,58.2,29.71,South,180,0.0,15.0,36,0.00,,,0.00,WUHU21623XXSP,2013-07-21 19:55:00,
2013-07-21 13:00:00,88.8,59.1,29.70,West,270,0.0,6.3,37,0.00,,,0.00,WUHU21623XXSP,2013-07-21 20:00:00,
2013-07-21 13:05:00,89.4,56.4,29.70,SSW,202,3.3,12.8,33,0.00,,,0.00,WUHU21623XXSP,2013-07-21 20:05:00,
2013-07-21 13:10:00,88.8,55.9,29.70,WSW,247,14.0,14.0,33,0.00,,,0.00,WUHU21623XXSP,2013-07-21 20:10:00,
2013-07-21 13:15:00,89.4,56.4,29.70,WSW,247,0.0,14.5,33,0.00,,,0.00,WUHU21623XXSP,2013-07-21 20:15:00,
2013-07-21 13:20:00,89.4,54.6,29.71,SSW,202,5.0,14.5,31,0.00,,,0.00,WUHU21623XXSP,2013-07-21 20:20:00,
2013-07-21 13:25:00,88.6,54.0,29.70,SSW,202,2.8,11.3,31,0.00,,,0.00,WUHU21623XXSP,2013-07-21 20:25:00,
2013-07-21 13:30:00,89.2,54.5,29.70,West,270,0.0,7.8,31,0.00,,,0.00,WUHU21623XXSP,2013-07-21 20:30:00,
2013-07-21 13:35:00,90.0,55.2,29.70,NW,315,12.8,12.8,31,0.00,,,0.00,WUHU21623XXSP,2013-07-21 20:35:00,
2013-07-21 13:40:00,90.8,55.0,29.70,South,180,3.3,12.8,30,0.00,,,0.00,WUHU21623XXSP,2013-07-21 20:40:00,
2013-07-21 13:45:00,91.4,55.5,29.70,WNW,292,5.5,10.0,30,0.00,,,0.00,WUHU21623XXSP,2013-07-21 20:45:00,
2013-07-21 13:50:00,91.6,54.8,29.69,SSE,157,5.0,22.3,29,0.00,,,0.00,WUHU21623XXSP,2013-07-21 20:50:00,
2013-07-21 13:55:00,91.6,53.8,29.69,SW,225,5.5,22.3,28,0.00,,,0.00,WUHU21623XXSP,2013-07-21 20:55:00,
2013-07-21 14:00:00,90.1,52.5,29.70,South,180,0.0,11.3,28,0.00,,,0.00,WUHU21623XXSP,2013-07-21 21:00:00,
2013-07-21 14:05:00,90.6,54.8,29.69,SSW,202,0.0,11.3,30,0.00,,,0.00,WUHU21623XXSP,2013-07-21 21:05:00,
2013-07-21 14:10:00,91.2,54.4,29.69,South,180,0.0,11.3,29,0.00,,,0.00,WUHU21623XXSP,2013-07-21 21:10:00,
2013-07-21 14:15:00,92.1,55.2,29.68,SSW,202,0.0,11.3,29,0.00,,,0.00,WUHU21623XXSP,2013-07-21 21:15:00,
2013-07-21 14:20:00,91.8,51.9,29.69,SSE,157,0.0,27.5,26,0.00,,,0.00,WUHU21623XXSP,2013-07-21 21:20:00,
2013-07-21 14:26:00,92.0,52.2,29.69,South,180,2.8,27.5,26,0.00,,,0.00,WUHU21623XXSP,2013-07-21 21:26:00,
2013-07-21 14:31:00,91.1,53.4,29.68,South,180,1.8,7.3,28,0.00,,,0.00,WUHU21623XXSP,2013-07-21 21:31:00,
2013-07-21 14:36:00,91.7,53.9,29.68,NE,45,0.0,18.5,28,0.00,,,0.00,WUHU21623XXSP,2013-07-21 21:36:00,
2013-07-21 14:41:00,92.0,54.2,29.68,NW,315,0.0,18.5,28,0.00,,,0.00,WUHU21623XXSP,2013-07-21 21:41:00,
2013-07-21 14:46:00,93.1,55.1,29.68,SW,225,0.0,7.8,28,0.00,,,0.00,WUHU21623XXSP,2013-07-21 21:46:00,
2013-07-21 14:51:00,93.8,53.7,29.68,West,270,0.0,10.8,26,0.00,,,0.00,WUHU21623XXSP,2013-07-21 21:51:00,
2013-07-21 14:58:00,94.1,53.9,29.68,South,180,0.0,9.5,26,0.00,,,0.00,WUHU21623XXSP,2013-07-21 21:58:00,
2013-07-21 15:03:00,94.8,53.4,29.68,NW,315,11.3,17.3,25,0.00,,,0.00,WUHU21623XXSP,2013-07-21 22:03:00,
2013-07-21 15:08:00,94.1,52.9,29.67,South,180,0.0,17.3,25,0.00,,,0.00,WUHU21623XXSP,2013-07-21 22:08:00,
2013-07-21 15:13:00,93.7,54.6,29.68,West,270,4.5,11.3,27,0.00,,,0.00,WUHU21623XXSP,2013-07-21 22:13:00,
2013-07-21 15:18:00,94.2,54.0,29.67,WNW,292,7.8,10.8,26,0.00,,,0.00,WUHU21623XXSP,2013-07-21 22:18:00,
2013-07-21 15:23:00,94.5,54.2,29.67,SW,225,0.0,15.0,26,0.00,,,0.00,WUHU21623XXSP,2013-07-21 22:23:00,
2013-07-21 15:28:00,94.3,53.1,29.67,South,180,2.3,15.0,25,0.00,,,0.00,WUHU21623XXSP,2013-07-21 22:28:00,
2013-07-21 15:33:00,94.2,52.9,29.68,NW,315,0.0,10.0,25,0.00,,,0.00,WUHU21623XXSP,2013-07-21 22:33:00,
2013-07-21 15:38:00,94.7,53.3,29.67,SW,225,9.0,21.3,25,0.00,,,0.00,WUHU21623XXSP,2013-07-21 22:38:00,
2013-07-21 15:43:00,94.9,53.6,29.67,West,270,0.0,21.3,25,0.00,,,0.00,WUHU21623XXSP,2013-07-21 22:43:00,
2013-07-21 15:48:00,95.2,53.8,29.66,SSW,202,5.0,9.5,25,0.00,,,0.00,WUHU21623XXSP,2013-07-21 22:48:00,
2013-07-21 15:53:00,94.7,53.4,29.66,North,0,0.0,10.8,25,0.00,,,0.00,WUHU21623XXSP,2013-07-21 22:53:00,
2013-07-21 15:58:00,94.6,53.3,29.66,South,180,2.8,10.8,25,0.00,,,0.00,WUHU21623XXSP,2013-07-21 22:58:00,
2013-07-21 16:03:00,94.7,53.4,29.66,SSW,202,6.3,12.8,25,0.00,,,0.00,WUHU21623XXSP,2013-07-21 23:03:00,
2013-07-21 16:08:00,94.1,52.8,29.66,South,180,5.5,19.0,25,0.00,,,0.00,WUHU21623XXSP,2013-07-21 23:08:00,
2013-07-21 16:13:00,94.4,53.1,29.66,SSW,202,6.8,19.0,25,0.00,,,0.00,WUHU21623XXSP,2013-07-21 23:13:00,
2013-07-21 16:18:00,94.1,52.9,29.66,SW,225,7.8,14.0,25,0.00,,,0.00,WUHU21623XXSP,2013-07-21 23:18:00,
2013-07-21 16:23:00,94.4,53.1,29.66,SW,225,0.0,10.8,25,0.00,,,0.00,WUHU21623XXSP,2013-07-21 23:23:00,
2013-07-21 16:28:00,94.7,53.4,29.66,South,180,0.0,7.8,25,0.00,,,0.00,WUHU21623XXSP,2013-07-21 23:28:00,
2013-07-21 16:33:00,95.2,53.8,29.66,WSW,247,11.3,15.8,25,0.00,,,0.00,WUHU21623XXSP,2013-07-21 23:33:00,
2013-07-21 16:38:00,95.6,54.2,29.66,South,180,5.0,18.0,25,0.00,,,0.00,WUHU21623XXSP,2013-07-21 23:38:00,
2013-07-21 16:43:00,94.9,53.5,29.66,SSW,202,0.0,18.0,25,0.00,,,0.00,WUHU21623XXSP,2013-07-21 23:43:00,
2013-07-21 16:48:00,95.0,53.6,29.65,SSW,202,0.0,13.5,25,0.00,,,0.00,WUHU21623XXSP,2013-07-21 23:48:00,
2013-07-21 16:53:00,95.3,53.9,29.65,SSE,157,0.0,11.3,25,0.00,,,0.00,WUHU21623XXSP,2013-07-21 23:53:00,
2013-07-21 16:58:00,95.4,53.9,29.65,WSW,247,3.3,15.0,25,0.00,,,0.00,WUHU21623XXSP,2013-07-21 23:58:00,
2013-07-21 17:03:00,95.2,52.7,29.65,SSW,202,7.8,18.5,24,0.00,,,0.00,WUHU21623XXSP,2013-07-22 00:03:00,
2013-07-21 17:08:00,95.4,54.0,29.65,SE,135,0.0,18.5,25,0.00,,,0.00,WUHU21623XXSP,2013-07-22 00:08:00,
2013-07-21 17:13:00,95.1,52.6,29.65,WSW,247,0.0,10.0,24,0.00,,,0.00,WUHU21623XXSP,2013-07-22 00:13:00,
2013-07-21 17:18:00,95.1,53.7,29.65,SSE,157,5.0,32.5,25,0.00,,,0.00,WUHU21623XXSP,2013-07-22 00:18:00,
2013-07-21 17:23:00,95.2,53.8,29.65,South,180,0.0,32.5,25,0.00,,,0.00,WUHU21623XXSP,2013-07-22 00:23:00,
2013-07-21 17:28:00,95.6,54.1,29.65,South,180,3.3,16.8,25,0.00,,,0.00,WUHU21623XXSP,2013-07-22 00:28:00,
2013-07-21 17:33:00,95.4,54.0,29.65,West,270,0.0,19.0,25,0.00,,,0.00,WUHU21623XXSP,2013-07-22 00:33:00,
2013-07-21 17:38:00,95.3,53.9,29.65,SSW,202,0.0,19.0,25,0.00,,,0.00,WUHU21623XXSP,2013-07-22 00:38:00,
2013-07-21 17:43:00,95.3,53.9,29.65,SSW,202,0.0,11.3,25,0.00,,,0.00,WUHU21623XXSP,2013-07-22 00:43:00,
2013-07-21 17:48:00,95.3,54.9,29.65,South,180,0.0,10.0,26,0.00,,,0.00,WUHU21623XXSP,2013-07-22 00:48:00,
2013-07-21 17:53:00,94.5,54.3,29.65,SSW,202,6.8,9.0,26,0.00,,,0.00,WUHU21623XXSP,2013-07-22 00:53:00,
2013-07-21 17:58:00,93.9,52.7,29.65,South,180,6.3,11.3,25,0.00,,,0.00,WUHU21623XXSP,2013-07-22 00:58:00,
2013-07-21 18:03:00,93.2,53.2,29.65,South,180,0.0,12.3,26,0.00,,,0.00,WUHU21623XXSP,2013-07-22 01:03:00,
2013-07-21 18:08:00,93.4,53.4,29.65,SSE,157,8.5,12.3,26,0.00,,,0.00,WUHU21623XXSP,2013-07-22 01:08:00,
2013-07-21 18:13:00,93.3,53.2,29.65,West,270,0.0,10.8,26,0.00,,,0.00,WUHU21623XXSP,2013-07-22 01:13:00,
2013-07-21 18:18:00,93.1,53.1,29.65,South,180,2.3,11.8,26,0.00,,,0.00,WUHU21623XXSP,2013-07-22 01:18:00,
2013-07-21 18:23:00,93.0,53.0,29.65,South,180,0.0,11.8,26,0.00,,,0.00,WUHU21623XXSP,2013-07-22 01:23:00,
2013-07-21 18:28:00,92.5,53.6,29.65,South,180,5.0,15.8,27,0.00,,,0.00,WUHU21623XXSP,2013-07-22 01:28:00,
2013-07-21 18:33:00,92.2,53.3,29.65,South,180,0.0,15.8,27,0.00,,,0.00,WUHU21623XXSP,2013-07-22 01:33:00,
2013-07-21 18:38:00,91.9,52.1,29.65,South,180,3.3,10.0,26,0.00,,,0.00,WUHU21623XXSP,2013-07-22 01:38:00,
2013-07-21 18:43:00,91.6,51.8,29.66,SSE,157,0.0,10.0,26,0.00,,,0.00,WUHU21623XXSP,2013-07-22 01:43:00,
2013-07-21 18:48:00,91.6,51.8,29.65,SSW,202,2.3,11.3,26,0.00,,,0.00,WUHU21623XXSP,2013-07-22 01:48:00,
2013-07-21 18:53:00,91.3,52.6,29.65,South,180,0.0,11.3,27,0.00,,,0.00,WUHU21623XXSP,2013-07-22 01:53:00,
2013-07-21 18:58:00,90.7,52.0,29.65,South,180,4.5,11.8,27,0.00,,,0.00,WUHU21623XXSP,2013-07-22 01:58:00,
2013-07-21 19:03:00,90.5,52.9,29.65,South,180,5.0,11.8,28,0.00,,,0.00,WUHU21623XXSP,2013-07-22 02:03:00,
2013-07-21 19:08:00,89.8,53.2,29.66,WSW,247,4.5,16.3,29,0.00,,,0.00,WUHU21623XXSP,2013-07-22 02:08:00,
2013-07-21 19:13:00,89.3,51.8,29.66,SSW,202,7.8,16.3,28,0.00,,,0.00,WUHU21623XXSP,2013-07-22 02:13:00,
2013-07-21 19:19:00,88.6,51.2,29.66,South,180,0.0,17.3,28,0.00,,,0.00,WUHU21623XXSP,2013-07-22 02:19:00,
2013-07-21 19:24:00,88.4,52.9,29.66,SW,225,4.5,17.3,30,0.00,,,0.00,WUHU21623XXSP,2013-07-22 02:24:00,
2013-07-21 19:29:00,87.5,52.1,29.66,South,180,0.0,9.0,30,0.00,,,0.00,WUHU21623XXSP,2013-07-22 02:29:00,
2013-07-21 19:34:00,87.1,51.8,29.66,South,180,0.0,20.8,30,0.00,,,0.00,WUHU21623XXSP,2013-07-22 02:34:00,
2013-07-21 19:39:00,86.9,52.5,29.66,South,180,0.0,20.8,31,0.00,,,0.00,WUHU21623XXSP,2013-07-22 02:39:00,
2013-07-21 19:44:00,86.8,52.4,29.66,SSW,202,0.0,12.3,31,0.00,,,0.00,WUHU21623XXSP,2013-07-22 02:44:00,
2013-07-21 19:49:00,86.6,52.2,29.66,SSW,202,0.0,12.3,31,0.00,,,0.00,WUHU21623XXSP,2013-07-22 02:49:00,
2013-07-21 19:54:00,86.2,51.9,29.67,WSW,247,0.0,15.0,31,0.00,,,0.00,WUHU21623XXSP,2013-07-22 02:54:00,
2013-07-21 19:59:00,85.7,52.3,29.67,SSE,157,0.0,15.0,32,0.00,,,0.00,WUHU21623XXSP,2013-07-22 02:59:00,
2013-07-21 20:04:00,85.1,51.8,29.67,South,180,0.0,7.3,32,0.00,,,0.00,WUHU21623XXSP,2013-07-22 03:04:00,
2013-07-21 20:09:00,84.8,51.5,29.68,SSE,157,4.0,17.3,32,0.00,,,0.00,WUHU21623XXSP,2013-07-22 03:09:00,
2013-07-21 20:14:00,84.2,51.8,29.68,SSE,157,0.0,17.3,33,0.00,,,0.00,WUHU21623XXSP,2013-07-22 03:14:00,
2013-07-21 20:19:00,83.9,52.4,29.68,SSW,202,4.5,12.8,34,0.00,,,0.00,WUHU21623XXSP,2013-07-22 03:19:00,
2013-07-21 20:24:00,83.2,51.8,29.69,SW,225,0.0,12.8,34,0.00,,,0.00,WUHU21623XXSP,2013-07-22 03:24:00,
2013-07-21 20:29:00,83.0,52.4,29.69,SSE,157,0.0,9.5,35,0.00,,,0.00,WUHU21623XXSP,2013-07-22 03:29:00,
2013-07-21 20:34:00,82.4,51.9,29.69,South,180,0.0,33.0,35,0.00,,,0.00,WUHU21623XXSP,2013-07-22 03:34:00,
2013-07-21 20:39:00,81.9,52.2,29.70,SSE,157,0.0,33.0,36,0.00,,,0.00,WUHU21623XXSP,2013-07-22 03:39:00,
2013-07-21 20:44:00,81.5,51.8,29.70,SSE,157,0.0,5.0,36,0.00,,,0.00,WUHU21623XXSP,2013-07-22 03:44:00,
2013-07-21 20:49:00,81.4,51.8,29.70,South,180,1.8,9.0,36,0.00,,,0.00,WUHU21623XXSP,2013-07-22 03:49:00,
2013-07-21 20:54:00,80.8,51.2,29.71,South,180,0.0,9.0,36,0.00,,,0.00,WUHU21623XXSP,2013-07-22 03:54:00,
2013-07-21 20:59:00,80.6,51.1,29.71,SSE,157,2.8,5.5,36,0.00,,,0.00,WUHU21623XXSP,2013-07-22 03:59:00,
2013-07-21 21:01:00,80.3,50.0,29.71,SSW,202,0.0,6.3,35,0.00,,,0.00,WUHU21623XXSP,2013-07-22 04:01:00,
2013-07-21 21:06:00,80.1,49.8,29.71,SSW,202,3.3,9.0,35,0.00,,,0.00,WUHU21623XXSP,2013-07-22 04:06:00,
2013-07-21 21:14:00,79.7,48.7,29.71,South,180,4.0,10.0,34,0.00,,,0.00,WUHU21623XXSP,2013-07-22 04:14:00,
2013-07-21 21:19:00,79.7,47.9,29.71,SSE,157,3.3,10.0,33,0.00,,,0.00,WUHU21623XXSP,2013-07-22 04:19:00,
2013-07-21 21:24:00,79.7,47.9,29.72,South,180,0.0,10.0,33,0.00,,,0.00,WUHU21623XXSP,2013-07-22 04:24:00,
2013-07-21 21:29:00,78.5,46.8,29.72,ESE,112,0.0,3.3,33,0.00,,,0.00,WUHU21623XXSP,2013-07-22 04:29:00,
2013-07-21 21:34:00,78.5,46.8,29.72,SSE,157,0.0,2.8,33,0.00,,,0.00,WUHU21623XXSP,2013-07-22 04:34:00,
2013-07-21 21:39:00,78.1,46.5,29.73,South,180,7.3,9.0,33,0.00,,,0.00,WUHU21623XXSP,2013-07-22 04:39:00,
2013-07-21 21:45:00,78.1,46.5,29.73,South,180,0.0,9.0,33,0.00,,,0.00,WUHU21623XXSP,2013-07-22 04:45:00,
2013-07-21 21:50:00,77.6,45.2,29.74,SE,135,0.0,7.8,32,0.00,,,0.00,WUHU21623XXSP,2013-07-22 04:50:00,
2013-07-21 21:55:00,77.2,46.5,29.73,SSW,202,0.0,7.8,34,0.00,,,0.00,WUHU21623XXSP,2013-07-22 04:55:00,
2013-07-21 22:00:00,77.2,46.5,29.74,SSW,202,0.0,1.8,34,0.00,,,0.00,WUHU21623XXSP,2013-07-22 05:00:00,
2013-07-21 22:05:00,77.2,46.5,29.74,South,180,0.0,1.8,34,0.00,,,0.00,WUHU21623XXSP,2013-07-22 05:05:00,
2013-07-21 22:10:00,76.5,46.7,29.74,SSE,157,2.8,2.8,35,0.00,,,0.00,WUHU21623XXSP,2013-07-22 05:10:00,
2013-07-21 22:15:00,76.0,47.0,29.75,West,270,3.3,9.0,36,0.00,,,0.00,WUHU21623XXSP,2013-07-22 05:15:00,
2013-07-21 22:20:00,75.6,47.4,29.74,South,180,0.0,9.0,37,0.00,,,0.00,WUHU21623XXSP,2013-07-22 05:20:00,
2013-07-21 22:25:00,75.2,47.0,29.75,South,180,3.3,4.0,37,0.00,,,0.00,WUHU21623XXSP,2013-07-22 05:25:00,
2013-07-21 22:30:00,74.7,47.3,29.75,SSE,157,0.0,9.0,38,0.00,,,0.00,WUHU21623XXSP,2013-07-22 05:30:00,
2013-07-21 22:35:00,74.5,48.5,29.75,WSW,247,11.3,11.3,40,0.00,,,0.00,WUHU21623XXSP,2013-07-22 05:35:00,
2013-07-21 22:40:00,73.8,48.5,29.75,South,180,0.0,11.3,41,0.00,,,0.00,WUHU21623XXSP,2013-07-22 05:40:00,
2013-07-21 22:45:00,73.6,49.0,29.75,SSE,157,0.0,11.3,42,0.00,,,0.00,WUHU21623XXSP,2013-07-22 05:45:00,
2013-07-21 22:50:00,73.6,49.0,29.75,South,180,0.0,3.3,42,0.00,,,0.00,WUHU21623XXSP,2013-07-22 05:50:00,
2013-07-21 22:55:00,73.4,49.5,29.76,ESE,112,0.0,0.0,43,0.00,,,0.00,WUHU21623XXSP,2013-07-22 05:55:00,
2013-07-21 23:00:00,73.1,49.2,29.76,SSE,157,0.0,0.0,43,0.00,,,0.00,WUHU21623XXSP,2013-07-22 06:00:00,
2013-07-21 23:05:00,72.9,49.0,29.76,SW,225,0.0,3.3,43,0.00,,,0.00,WUHU21623XXSP,2013-07-22 06:05:00,
2013-07-21 23:10:00,72.7,49.5,29.76,ESE,112,0.0,3.3,44,0.00,,,0.00,WUHU21623XXSP,2013-07-22 06:10:00,
2013-07-21 23:15:00,72.7,49.5,29.77,South,180,7.8,7.8,44,0.00,,,0.00,WUHU21623XXSP,2013-07-22 06:15:00,
2013-07-21 23:20:00,72.4,49.2,29.77,South,180,0.0,7.8,44,0.00,,,0.00,WUHU21623XXSP,2013-07-22 06:20:00,
2013-07-21 23:25:00,72.2,49.7,29.77,South,180,0.0,7.8,45,0.00,,,0.00,WUHU21623XXSP,2013-07-22 06:25:00,
2013-07-21 23:30:00,72.2,49.7,29.77,SSE,157,0.0,0.0,45,0.00,,,0.00,WUHU21623XXSP,2013-07-22 06:30:00,
2013-07-21 23:35:00,72.2,49.7,29.77,SSE,157,0.0,0.0,45,0.00,,,0.00,WUHU21623XXSP,2013-07-22 06:35:00,
2013-07-21 23:40:00,72.2,50.3,29.78,South,180,0.0,0.0,46,0.00,,,0.00,WUHU21623XXSP,2013-07-22 06:40:00,
2013-07-21 23:45:00,72.2,50.3,29.78,South,180,0.0,0.0,46,0.00,,,0.00,WUHU21623XXSP,2013-07-22 06:45:00,
2013-07-21 23:50:00,72.2,50.3,29.78,SE,135,0.0,0.0,46,0.00,,,0.00,WUHU21623XXSP,2013-07-22 06:50:00,
2013-07-21 23:55:00,71.8,49.9,29.78,SSE,157,0.0,0.0,46,0.00,,,0.00,WUHU21623XXSP,2013-07-22 06:55:00,